Time,TemperatureF,DewpointF,PressureIn,WindDirection,WindDirectionDegrees,WindSpeedMPH,WindSpeedGustMPH,Humidity,HourlyPrecipIn,Conditions,Clouds,dailyrainin,SoftwareType,DateUTC
2013-06-19 00:00:00,62.2,61.0,29.89,WNW,287,1.0,4.0,95,0.00,,,0.00,weatherlink.com 1.10,2013-06-19 04:00:00,
2013-06-19 00:15:00,62.2,61.0,29.88,WSW,249,2.0,3.0,94,0.00,,,0.00,weatherlink.com 1.10,2013-06-19 04:15:00,
2013-06-19 00:30:00,61.9,60.0,29.89,WNW,298,2.0,2.0,94,0.00,,,0.00,weatherlink.com 1.10,2013-06-19 04:30:00,
2013-06-19 00:45:00,61.8,60.0,29.89,South,172,0.0,1.0,94,0.00,,,0.00,weatherlink.com 1.10,2013-06-19 04:45:00,
2013-06-19 01:00:00,62.0,60.0,29.88,SSE,160,0.0,1.0,94,0.00,,,0.00,weatherlink.com 1.10,2013-06-19 05:00:00,
2013-06-19 01:16:00,61.6,60.0,29.89,NNW,330,3.0,3.0,95,0.00,,,0.00,weatherlink.com 1.10,2013-06-19 05:16:00,
2013-06-19 01:31:00,61.2,60.0,29.89,SW,226,0.0,2.0,95,0.00,,,0.00,weatherlink.com 1.10,2013-06-19 05:31:00,
2013-06-19 01:46:00,60.9,59.0,29.89,WSW,243,0.0,1.0,94,0.00,,,0.00,weatherlink.com 1.10,2013-06-19 05:46:00,
2013-06-19 02:01:00,60.7,59.0,29.88,West,272,0.0,2.0,94,0.00,,,0.00,weatherlink.com 1.10,2013-06-19 06:01:00,
2013-06-19 02:16:00,60.3,59.0,29.88,WSW,239,0.0,2.0,95,0.00,,,0.00,weatherlink.com 1.10,2013-06-19 06:16:00,
2013-06-19 02:31:00,60.4,59.0,29.88,SE,128,1.0,2.0,96,0.00,,,0.00,weatherlink.com 1.10,2013-06-19 06:31:00,
2013-06-19 02:46:00,60.3,59.0,29.89,NE,48,1.0,2.0,96,0.00,,,0.00,weatherlink.com 1.10,2013-06-19 06:46:00,
2013-06-19 03:01:00,60.2,59.0,29.89,ESE,115,2.0,4.0,97,0.00,,,0.00,weatherlink.com 1.10,2013-06-19 07:01:00,
2013-06-19 03:16:00,60.0,59.0,29.89,ESE,113,1.0,2.0,97,0.00,,,0.00,weatherlink.com 1.10,2013-06-19 07:16:00,
2013-06-19 03:31:00,59.7,59.0,29.90,ESE,122,0.0,1.0,97,0.00,,,0.00,weatherlink.com 1.10,2013-06-19 07:31:00,
2013-06-19 03:46:00,59.2,58.0,29.90,East,84,1.0,2.0,97,0.00,,,0.00,weatherlink.com 1.10,2013-06-19 07:46:00,
2013-06-19 04:01:00,59.1,58.0,29.90,WSW,251,0.0,1.0,97,0.00,,,0.00,weatherlink.com 1.10,2013-06-19 08:01:00,
2013-06-19 04:16:00,58.7,58.0,29.90,West,278,0.0,1.0,97,0.00,,,0.00,weatherlink.com 1.10,2013-06-19 08:16:00,
2013-06-19 04:31:00,58.5,58.0,29.89,WSW,257,0.0,1.0,97,0.00,,,0.00,weatherlink.com 1.10,2013-06-19 08:31:00,
2013-06-19 04:46:00,58.0,57.0,29.89,SW,229,0.0,2.0,97,0.00,,,0.00,weatherlink.com 1.10,2013-06-19 08:46:00,
2013-06-19 05:01:00,58.0,58.0,29.90,WSW,257,0.0,1.0,98,0.00,,,0.00,weatherlink.com 1.10,2013-06-19 09:01:00,
2013-06-19 05:16:00,58.2,58.0,29.91,NNW,328,0.0,2.0,98,0.00,,,0.00,weatherlink.com 1.10,2013-06-19 09:16:00,
2013-06-19 05:31:00,58.3,58.0,29.92,SW,236,0.0,1.0,98,0.00,,,0.00,weatherlink.com 1.10,2013-06-19 09:31:00,
2013-06-19 05:46:00,58.3,58.0,29.92,SW,222,0.0,1.0,98,0.00,,,0.00,weatherlink.com 1.10,2013-06-19 09:46:00,
2013-06-19 06:01:00,58.4,58.0,29.92,SE,134,0.0,1.0,98,0.00,,,0.00,weatherlink.com 1.10,2013-06-19 10:01:00,
2013-06-19 06:16:00,58.8,58.0,29.93,ESE,121,1.0,1.0,98,0.00,,,0.00,weatherlink.com 1.10,2013-06-19 10:16:00,
2013-06-19 06:31:00,59.3,59.0,29.93,SE,129,0.0,1.0,98,0.00,,,0.00,weatherlink.com 1.10,2013-06-19 10:31:00,
2013-06-19 06:46:00,59.9,59.0,29.94,SW,228,0.0,1.0,97,0.00,,,0.00,weatherlink.com 1.10,2013-06-19 10:46:00,
2013-06-19 07:01:00,61.2,60.0,29.94,WSW,249,0.0,1.0,96,0.00,,,0.00,weatherlink.com 1.10,2013-06-19 11:01:00,
2013-06-19 07:16:00,61.8,60.0,29.95,WSW,245,0.0,3.0,95,0.00,,,0.00,weatherlink.com 1.10,2013-06-19 11:16:00,
2013-06-19 07:31:00,63.1,61.0,29.96,SW,224,0.0,2.0,92,0.00,,,0.00,weatherlink.com 1.10,2013-06-19 11:31:00,
2013-06-19 07:46:00,64.5,62.0,29.96,SW,232,1.0,2.0,91,0.00,,,0.00,weatherlink.com 1.10,2013-06-19 11:46:00,
2013-06-19 08:01:00,65.8,63.0,29.97,NNE,22,0.0,1.0,89,0.00,,,0.00,weatherlink.com 1.10,2013-06-19 12:01:00,
2013-06-19 08:16:00,65.5,63.0,29.98,WNW,300,1.0,2.0,91,0.00,,,0.00,weatherlink.com 1.10,2013-06-19 12:16:00,
2013-06-19 08:31:00,66.6,64.0,29.98,ENE,60,7.0,7.0,90,0.00,,,0.00,weatherlink.com 1.10,2013-06-19 12:31:00,
2013-06-19 08:46:00,67.1,64.0,29.99,ENE,60,8.0,11.0,88,0.00,,,0.00,weatherlink.com 1.10,2013-06-19 12:46:00,
2013-06-19 09:02:00,67.5,64.0,29.99,ENE,66,9.0,10.0,88,0.00,,,0.00,weatherlink.com 1.10,2013-06-19 13:02:00,
2013-06-19 09:17:00,67.4,63.0,30.00,NNE,26,8.0,10.0,86,0.00,,,0.00,weatherlink.com 1.10,2013-06-19 13:17:00,
2013-06-19 09:32:00,67.7,63.0,30.01,NE,37,8.0,12.0,86,0.00,,,0.00,weatherlink.com 1.10,2013-06-19 13:32:00,
2013-06-19 09:47:00,68.3,63.0,30.01,North,358,6.0,8.0,84,0.00,,,0.00,weatherlink.com 1.10,2013-06-19 13:47:00,
2013-06-19 10:02:00,68.5,63.0,30.01,ENE,57,6.0,8.0,83,0.00,,,0.00,weatherlink.com 1.10,2013-06-19 14:02:00,
2013-06-19 10:17:00,68.9,64.0,30.01,NE,56,5.0,8.0,83,0.00,,,0.00,weatherlink.com 1.10,2013-06-19 14:17:00,
2013-06-19 10:32:00,69.2,64.0,30.02,ENE,72,5.0,7.0,83,0.00,,,0.00,weatherlink.com 1.10,2013-06-19 14:32:00,
2013-06-19 10:47:00,69.4,63.0,30.02,ENE,57,4.0,6.0,81,0.00,,,0.00,weatherlink.com 1.10,2013-06-19 14:47:00,
2013-06-19 11:02:00,69.7,64.0,30.02,ENE,62,6.0,7.0,81,0.00,,,0.00,weatherlink.com 1.10,2013-06-19 15:02:00,
2013-06-19 11:17:00,70.0,63.0,30.02,NE,47,6.0,7.0,79,0.00,,,0.00,weatherlink.com 1.10,2013-06-19 15:17:00,
2013-06-19 11:32:00,70.7,63.0,30.02,East,82,5.0,9.0,76,0.00,,,0.00,weatherlink.com 1.10,2013-06-19 15:32:00,
2013-06-19 11:47:00,71.5,64.0,30.02,East,92,4.0,9.0,77,0.00,,,0.00,weatherlink.com 1.10,2013-06-19 15:47:00,
2013-06-19 12:02:00,71.8,63.0,30.03,ENE,69,3.0,7.0,74,0.00,,,0.00,weatherlink.com 1.10,2013-06-19 16:02:00,
2013-06-19 12:17:00,72.3,63.0,30.02,NE,50,3.0,7.0,73,0.00,,,0.00,weatherlink.com 1.10,2013-06-19 16:17:00,
2013-06-19 12:32:00,72.2,64.0,30.02,East,89,7.0,10.0,75,0.00,,,0.00,weatherlink.com 1.10,2013-06-19 16:32:00,
2013-06-19 12:47:00,72.5,63.0,30.02,ENE,65,1.0,9.0,73,0.00,,,0.00,weatherlink.com 1.10,2013-06-19 16:47:00,
2013-06-19 13:02:00,72.9,64.0,30.02,SE,137,6.0,12.0,74,0.00,,,0.00,weatherlink.com 1.10,2013-06-19 17:02:00,
2013-06-19 13:17:00,72.4,64.0,30.02,ENE,57,5.0,10.0,74,0.00,,,0.00,weatherlink.com 1.10,2013-06-19 17:17:00,
2013-06-19 13:32:00,72.6,64.0,30.02,ESE,123,5.0,7.0,74,0.00,,,0.00,weatherlink.com 1.10,2013-06-19 17:32:00,
2013-06-19 13:47:00,73.6,65.0,30.02,SE,134,7.0,10.0,74,0.00,,,0.00,weatherlink.com 1.10,2013-06-19 17:47:00,
2013-06-19 14:02:00,74.4,62.0,30.01,NE,51,2.0,9.0,66,0.00,,,0.00,weatherlink.com 1.10,2013-06-19 18:02:00,
2013-06-19 14:17:00,74.1,64.0,30.02,East,97,8.0,11.0,71,0.00,,,0.00,weatherlink.com 1.10,2013-06-19 18:17:00,
2013-06-19 14:32:00,73.1,64.0,30.02,SE,125,12.0,12.0,74,0.00,,,0.00,weatherlink.com 1.10,2013-06-19 18:32:00,
2013-06-19 14:47:00,73.0,64.0,30.02,East,90,8.0,11.0,73,0.00,,,0.00,weatherlink.com 1.10,2013-06-19 18:47:00,
2013-06-19 15:02:00,72.4,64.0,30.02,ESE,103,12.0,13.0,74,0.00,,,0.00,weatherlink.com 1.10,2013-06-19 19:02:00,
2013-06-19 15:17:00,72.3,64.0,30.02,ESE,113,8.0,13.0,74,0.00,,,0.00,weatherlink.com 1.10,2013-06-19 19:17:00,
2013-06-19 15:32:00,72.5,63.0,30.02,East,96,7.0,11.0,73,0.00,,,0.00,weatherlink.com 1.10,2013-06-19 19:32:00,
2013-06-19 15:47:00,73.1,63.0,30.02,ESE,122,7.0,10.0,70,0.00,,,0.00,weatherlink.com 1.10,2013-06-19 19:47:00,
2013-06-19 16:02:00,73.7,62.0,30.02,ENE,58,6.0,8.0,67,0.00,,,0.00,weatherlink.com 1.10,2013-06-19 20:02:00,
2013-06-19 16:17:00,73.8,62.0,30.02,East,80,7.0,7.0,67,0.00,,,0.00,weatherlink.com 1.10,2013-06-19 20:17:00,
2013-06-19 16:32:00,73.7,63.0,30.02,SE,124,5.0,6.0,69,0.00,,,0.00,weatherlink.com 1.10,2013-06-19 20:32:00,
2013-06-19 16:47:00,73.5,61.0,30.02,East,94,7.0,8.0,66,0.00,,,0.00,weatherlink.com 1.10,2013-06-19 20:47:00,
2013-06-19 17:02:00,73.0,63.0,30.02,East,93,8.0,11.0,70,0.00,,,0.00,weatherlink.com 1.10,2013-06-19 21:02:00,
2013-06-19 17:17:00,72.5,63.0,30.02,East,98,7.0,10.0,72,0.00,,,0.00,weatherlink.com 1.10,2013-06-19 21:17:00,
2013-06-19 17:32:00,72.3,64.0,30.03,ESE,113,6.0,9.0,74,0.00,,,0.00,weatherlink.com 1.10,2013-06-19 21:32:00,
2013-06-19 17:47:00,72.3,64.0,30.03,East,89,6.0,6.0,76,0.00,,,0.00,weatherlink.com 1.10,2013-06-19 21:47:00,
2013-06-19 18:02:00,72.3,63.0,30.03,ENE,75,4.0,6.0,73,0.00,,,0.00,weatherlink.com 1.10,2013-06-19 22:02:00,
2013-06-19 18:17:00,72.4,64.0,30.03,ESE,121,4.0,8.0,74,0.00,,,0.00,weatherlink.com 1.10,2013-06-19 22:17:00,
2013-06-19 18:32:00,72.3,64.0,30.04,East,95,5.0,8.0,75,0.00,,,0.00,weatherlink.com 1.10,2013-06-19 22:32:00,
2013-06-19 18:47:00,72.2,64.0,30.04,East,90,5.0,7.0,76,0.00,,,0.00,weatherlink.com 1.10,2013-06-19 22:47:00,
2013-06-19 19:02:00,72.2,64.0,30.04,SE,134,6.0,7.0,75,0.00,,,0.00,weatherlink.com 1.10,2013-06-19 23:02:00,
2013-06-19 19:17:00,72.1,64.0,30.05,SSE,148,5.0,6.0,76,0.00,,,0.00,weatherlink.com 1.10,2013-06-19 23:17:00,
2013-06-19 19:32:00,71.9,64.0,30.05,SE,141,5.0,7.0,75,0.00,,,0.00,weatherlink.com 1.10,2013-06-19 23:32:00,
2013-06-19 19:48:00,71.6,64.0,30.05,SE,139,4.0,5.0,77,0.00,,,0.00,weatherlink.com 1.10,2013-06-19 23:48:00,
2013-06-19 20:03:00,71.3,64.0,30.05,SSE,150,3.0,5.0,77,0.00,,,0.00,weatherlink.com 1.10,2013-06-20 00:03:00,
2013-06-19 20:18:00,71.0,64.0,30.06,SSE,160,0.0,4.0,78,0.00,,,0.00,weatherlink.com 1.10,2013-06-20 00:18:00,
2013-06-19 20:33:00,70.7,64.0,30.07,SSE,165,0.0,3.0,79,0.00,,,0.00,weatherlink.com 1.10,2013-06-20 00:33:00,
2013-06-19 20:48:00,70.2,64.0,30.07,SE,141,1.0,3.0,81,0.00,,,0.00,weatherlink.com 1.10,2013-06-20 00:48:00,
2013-06-19 21:18:00,69.4,64.0,30.07,SE,137,2.0,3.0,84,0.00,,,0.00,weatherlink.com 1.10,2013-06-20 01:18:00,
2013-06-19 21:33:00,68.8,64.0,30.08,SSE,159,1.0,2.0,85,0.00,,,0.00,weatherlink.com 1.10,2013-06-20 01:33:00,
2013-06-19 21:48:00,68.4,64.0,30.08,SSE,162,1.0,2.0,86,0.00,,,0.00,weatherlink.com 1.10,2013-06-20 01:48:00,
2013-06-19 22:03:00,67.4,64.0,30.08,SSE,155,0.0,1.0,89,0.00,,,0.00,weatherlink.com 1.10,2013-06-20 02:03:00,
2013-06-19 22:18:00,66.9,64.0,30.09,SSE,154,0.0,0.0,90,0.00,,,0.00,weatherlink.com 1.10,2013-06-20 02:18:00,
2013-06-19 22:33:00,66.2,64.0,30.09,East,79,0.0,1.0,91,0.00,,,0.00,weatherlink.com 1.10,2013-06-20 02:33:00,
2013-06-19 22:48:00,65.6,64.0,30.10,North,6,0.0,0.0,93,0.00,,,0.00,weatherlink.com 1.10,2013-06-20 02:48:00,
2013-06-19 23:03:00,65.9,64.0,30.10,East,89,0.0,1.0,93,0.00,,,0.00,weatherlink.com 1.10,2013-06-20 03:03:00,
2013-06-19 23:18:00,65.6,64.0,30.11,West,281,0.0,1.0,93,0.00,,,0.00,weatherlink.com 1.10,2013-06-20 03:18:00,
2013-06-19 23:33:00,65.6,64.0,30.11,WSW,250,0.0,2.0,93,0.00,,,0.00,weatherlink.com 1.10,2013-06-20 03:33:00,
2013-06-19 23:48:00,65.7,64.0,30.11,SW,226,0.0,1.0,93,0.00,,,0.00,weatherlink.com 1.10,2013-06-20 03:48:00,